Regional Weather Roundup
Issued by NWS Mobile, AL

Home | Current Version | Previous Version | Text Only | Print | Product List | Glossary On
Versions: 1 2 3 4 5 6 7 8 9 10 11 12 13 14 15 16 17 18 19 20 21 22 23 24 25 26 27 28 29 30 31 32 33 34 35 36 37 38 39 40 41 42 43 44 45 46 47 48 49 50
000
ASUS44 KMOB 240312
RWRMOB
REGIONAL WEATHER ROUNDUP
NATIONAL WEATHER SERVICE MOBILE AL
1000 PM CDT SUN APR 23 2017

NOTE: "FAIR" INDICATES FEW OR NO CLOUDS BELOW 12,000 FEET WITH NO
      SIGNIFICANT WEATHER AND/OR OBSTRUCTIONS TO VISIBILITY.

  * THESE STATIONS ARE PART OF THE UNIVERSITY OF SOUTH ALABAMA
    MESONET AND ARE NOT UNDER NWS OR FAA QUALITY CONTROL.

ALZ061>064-240400-
COASTAL ALABAMA

CITY           SKY/WX    TMP DP  RH WIND       PRES   REMARKS
MOBILE REG APT CLOUDY    58  48  69 NW8       29.93R
BROOKLEY FIELD CLOUDY    59  50  72 NW14      29.93R
USA CAMPUS*      N/A     57  50  77 CALM      29.93R
DOG RIVER*       N/A     59  50  72 NW9       30.64R


CITY           SKY/WX    TMP DP  RH WIND       PRES   REMARKS
GULF SHORES    CLEAR     58  51  77 NW7       29.90R

$$

ALZ051>060-240400-
INTERIOR SOUTHWEST AND SOUTH CENTRAL ALABAMA

CITY           SKY/WX    TMP DP  RH WIND       PRES   REMARKS
GREENVILLE     CLOUDY    56  50  80 W9        29.86R
EVERGREEN      CLEAR     55  50  83 VRB5      29.89R
ATMORE*          N/A     57  52  82 NW7       29.91R
ANDALUSIA/OPP  CLEAR     59  50  72 NW9       29.86R
ANDALUSIA*       N/A     55  52  88 NW7       29.86R
FLORALA APT    MOCLDY    58  50  75 CALM      29.87R
FLORALA*         N/A     59  52  77 SW6       30.53R

$$

FLZ001>006-240400-
WESTERN FLORIDA PANHANDLE

CITY           SKY/WX    TMP DP  RH WIND       PRES   REMARKS
PENSACOLA      CLEAR     60  50  69 NW12      29.88R
NAS PENSACOLA  CLEAR     60  50  69 NW15G22   29.87R
MILTON         LGT RAIN  57  51  80 NW8       29.88R
WHTNG S FIELD  PTCLDY    60  52  74 NW8       29.88R


CITY           SKY/WX    TMP DP  RH WIND       PRES   REMARKS
JAY*             N/A     55  48  76 NW6       29.89R
DUKE FIELD     MOCLDY    61  50  68 NW12      29.86R
CRESTVIEW      MOCLDY    60  51  72 N10G20    29.88R
VALPARAISO     PTCLDY    62  51  66 NW14      29.85R
DESTIN         CLEAR     66  55  67 NW15      29.85R

$$

MSZ076-079-240400-
INTERIOR SOUTHEAST MISSISSIPPI

CITY           SKY/WX    TMP DP  RH WIND       PRES   REMARKS
LEAKESVILLE*   NOT AVBL
AGRICOLA*        N/A     55  50  82 NW6       29.93R

$$

MARINE OBSERVATIONS

STATION/POSITION TIME  TEMP    WIND        PRES    WAVE
                       AIR SEA DIR/SP/G            HT/PER
                 (UTC) (F)     (DEG/KT/KT) (MB)    (FT/S)
PASCAGOULA       0248   59     340/ 10/ 14 1013.1R
PETIT BOIS ISLND 0248   60     350/ 17/ 25 1013.8R
GRAND BAY        0145   61     340/ 13     1013.0R
KATRINA CUT      0230   62     350/ 19     1012.5R
CEDAR POINT      0230   60     340/ 17     1012.2R
E DAUPHIN ISLAND 0200   61     320/ 22/ 26 1012.0R
MIDDLE BAY LIGHT 0230   61     330/ 20     1012.5R
USCG MOBILE BAY  0248   59 75  320/  9/ 12 1013.6R
STATE DOCKS      0248   60 75              1012.9R
MEAHER PARK      0230   60     330/  9     1012.5R
FORT MORGAN      0248   61     330/ 23/ 26   N/A
12 S ORANGE BCH  0250   63 75  350/ 19/ 23 1011.2R   3/ 4
PENSACOLA BAY    0248   61 77  340/  6/ 14 1011.7R
64 S DAUPHIN ISL 0250   68 75  340/ 21/ 27 1012.1R   4/ 5
67 S FORT MORGAN 0230   68        CALM     1011.5R

$$

SELECTED LOCATIONS ACROSS THE REGION

CITY           SKY/WX    TMP DP  RH WIND       PRES   REMARKS
NEW ORLEANS    PTCLDY    60  50  69 N10       29.97R
GULFPORT       CLOUDY    59  50  72 NW13      29.94R
PASCAGOULA AP  CLOUDY    59  48  67 NW7       29.93R
PASCAGOULA*    NOT AVBL
HATTIESBURG    CLOUDY    57  50  77 NW7       29.95R
LAUREL         CLOUDY    55  48  76 W5        29.95R
MERIDIAN       CLOUDY    55  49  80 NW8       29.92S
JACKSON        CLOUDY    58  50  75 NW5       29.96R
MONTGOMERY     CLOUDY    58  50  75 NW10      29.86R
TROY           CLOUDY    57  53  86 NW6       29.85S
ASHFORD*         N/A     55  52  88 NW7       29.86R
DOTHAN         CLEAR     59  54  83 NW9       29.86R
PANAMA CITY    PTCLDY    61  58  90 NW10      29.83R

$$




USA.gov is the U.S. government's official web portal to all federal, state and local government web resources and services.